Hato International Airport


Codes: TNCC/CUR
Name: Hato International Airport
City: Willemstad
Country: Curacao
Elevation: 29 ft.
Wikipedia:

Photos at Hato International Airport


   Photos courtesy of SpottingLog. You can add your own sightings and photos by signing up for a free trial today.



No photos found.

Weather at Hato International Airport


Time (UTC)DescriptionTempratureWindCloud coverageVisibilityPressureHumidity
23-May-2024 21:00Few Clouds31°C20 mph, E20%10000m1011hPa79%
24-May-2024 00:00Scattered Clouds30°C18 mph, E39%10000m1011hPa82%
24-May-2024 03:00Broken Clouds29°C18 mph, E73%10000m1012hPa85%
24-May-2024 06:00Overcast Clouds28°C16 mph, E100%10000m1011hPa87%
24-May-2024 09:00Overcast Clouds28°C16 mph, E100%10000m1011hPa86%
24-May-2024 12:00Overcast Clouds28°C16 mph, E100%10000m1012hPa87%
24-May-2024 15:00Light Rain28°C16 mph, E100%10000m1012hPa86%
24-May-2024 18:00Overcast Clouds28°C16 mph, E100%10000m1011hPa86%
24-May-2024 21:00Broken Clouds28°C18 mph, NE60%10000m1010hPa85%
25-May-2024 00:00Broken Clouds28°C18 mph, NE80%10000m1011hPa86%
25-May-2024 03:00Overcast Clouds28°C16 mph, E100%10000m1013hPa88%
25-May-2024 06:00Overcast Clouds28°C16 mph, E100%10000m1011hPa86%
25-May-2024 09:00Overcast Clouds28°C16 mph, E100%10000m1011hPa82%
25-May-2024 12:00Overcast Clouds28°C16 mph, E100%10000m1012hPa82%
25-May-2024 15:00Overcast Clouds28°C16 mph, E100%10000m1013hPa83%
25-May-2024 18:00Overcast Clouds28°C18 mph, E100%10000m1011hPa83%
25-May-2024 21:00Overcast Clouds28°C16 mph, E100%10000m1010hPa82%
26-May-2024 00:00Overcast Clouds28°C16 mph, E100%10000m1012hPa85%
26-May-2024 03:00Overcast Clouds28°C16 mph, E100%10000m1013hPa86%
26-May-2024 06:00Overcast Clouds28°C16 mph, E100%10000m1011hPa86%
26-May-2024 09:00Light Rain28°C16 mph, E100%10000m1012hPa85%
26-May-2024 12:00Light Rain27°C13 mph, E97%10000m1013hPa86%
26-May-2024 15:00Overcast Clouds28°C16 mph, E100%10000m1014hPa84%
26-May-2024 18:00Overcast Clouds28°C16 mph, E100%10000m1012hPa83%
26-May-2024 21:00Overcast Clouds28°C16 mph, NE100%10000m1010hPa85%
27-May-2024 00:00Light Rain28°C16 mph, E100%10000m1013hPa87%
27-May-2024 03:00Light Rain28°C16 mph, E100%5887m1014hPa88%
27-May-2024 06:00Light Rain27°C13 mph, E100%10000m1012hPa84%
27-May-2024 09:00Light Rain27°C16 mph, E100%10000m1012hPa83%
27-May-2024 12:00Light Rain27°C13 mph, E100%6823m1014hPa84%
27-May-2024 15:00Light Rain27°C11 mph, E100%10000m1015hPa84%
27-May-2024 18:00Light Rain28°C18 mph, E93%10000m1013hPa82%
27-May-2024 21:00Few Clouds28°C18 mph, E17%10000m1011hPa82%
28-May-2024 00:00Scattered Clouds28°C18 mph, E29%10000m1013hPa84%
28-May-2024 03:00Broken Clouds28°C18 mph, E79%10000m1014hPa86%
28-May-2024 06:00Light Rain28°C18 mph, E67%10000m1013hPa84%
28-May-2024 09:00Light Rain28°C20 mph, E92%10000m1013hPa84%
28-May-2024 12:00Light Rain28°C20 mph, E70%10000m1014hPa83%
28-May-2024 15:00Light Rain28°C20 mph, E76%10000m1014hPa83%
28-May-2024 18:00Broken Clouds28°C20 mph, E80%10000m1012hPa85%